Weather in Kostyayevo Bolshoye

Russia / Ivanovo Oblast     57°15′40″N   42°43′39″E
temp.,
°C
wind,
m/s
gust,
m/s
humid.,
%
clouds,
%
prec.,
mm/h
press.,
hPa
HPBL,
m
19 september, sun
sun1900:00+3nne22765 0.0 102734
03:00+1nne2380100 0.0 102763
06:00+1ne2386100 0.0 102764
09:00+5ne3464100 0.0 1028556
12:00+8ene3353100 0.0 1027939
15:00+9ene3449100 0.0 10271073
18:00+6ene366598 0.0 1026111
21:00+5ene4969100 0.0 1026243
20 september, mon
mon2000:00+4ene51076100 0.0 1027457
03:00+3e51175100 0.0 1027543
06:00+3e61175100 0.0 1027572
09:00+4e61065100 0.0 1027716
12:00+7e6854100 0.0 1027968
15:00+7e6952100 0.0 10261085
18:00+7e6952100 0.0 1025954
21:00+6e61156100 0.0 1026789
21 september, tue
tue2100:00+6e61158100 0.0 1025682
03:00+5e61261100 0.0 1024590
06:00+5e61265100 0.0 1023566
09:00+6e61265100 0.1 1023907
12:00+8ese61263100 0.0 10221104
15:00+8ese61266100 0.1 10211019
18:00+8ese61167100 0.2 1021957
21:00+7e61271100 0.3 1021857
22 september, wed
wed2200:00+7e6117297 0.1 1020683
03:00+7e61170100 0.3 1019633
06:00+7e61266100 0.0 1019647
09:00+7e61272100 0.3 1019691
12:00+8e51181100 0.9 1020660
15:00+9e4976100 1.5 1020550
18:00+9e2584100 0.3 1020116
21:00+9ene3992100 1.1 1020417
23 september, thu
thu2300:00+8e4886100 1.3 1020389
03:00+8e4893100 2.3 1019437
06:00+8ese3796100 0.8 1019445
09:00+9ese3696100 0.8 1019357
12:00+10ese3697100 0.1 1018518
15:00+10se3796100 0.9 1018449
18:00+10se379594 0.0 1017332
21:00+10ese3796100 0.0 1017287